Weather History for Hillsboro, TX

Change the Weather History Date:

Thursday, August 1, 2013

  Actual Average (KACT) Record (KACT)
Temperature  
Mean Temperature 89 °F 86 °F  
Max Temperature 103 °F 98 °F 107 °F (2011)
Min Temperature 75 °F 75 °F 58 °F (1936)
Degree Days  
Heating Degree Days 0 0  
Month to date heating degree days 0  
Since 1 June heating degree days 0  
Since 1 July heating degree days 0  
Cooling Degree Days 24 21  
Month to date cooling degree days 21  
Year to date cooling degree days 1587  
Since 1 June cooling degree days 1135  
Growing Degree Days 39 (Base 50)    
Moisture  
Dew Point 63 °F    
Average Humidity 44    
Maximum Humidity 70    
Minimum Humidity 24    
Precipitation  
Precipitation 0.00 in 0.05 in 0.91 in (1905)
Month to date precipitation 0.05  
Year to date precipitation 20.16  
Sea Level Pressure  
Sea Level Pressure 29.96 in    
Wind  
Wind Speed 4 mph (South)    
Max Wind Speed 12 mph    
Max Gust Speed 17 mph    
Visibility 10 miles    
Events      
T = Trace of Precipitation, MM = Missing Value Source: NWS Daily Summary

Daily Weather History Graph

Daily Weather History Graph

Search for Another Location

Airport:

Trip Planner

Search our weather history database for the weather conditions in past years. The results will help you decide how hot, cold, wet, or windy it might be!

Date:

Astronomy

Aug. 01, 2013 Rise Set
Actual Time 6:43 AM CDT 8:25 PM CDT
Civil Twilight 6:17 AM CDT 8:51 PM CDT
Nautical Twilight 5:45 AM CDT 9:23 PM CDT
Astronomical Twilight 5:11 AM CDT 9:57 PM CDT
Moon 2:22 AM CDT (8/1) 4:32 PM CDT (8/1)
Length of Visible Light 14h 34m
Length of Day
13h 41m
Waning Crescent, 23% of the Moon is Illuminated
Aug 1
Waning Crescent
Aug 6
New
Aug 14
First Quarter
Aug 20
Full
Aug 28
Last Quarter

Hourly Weather History & Observations

Time (CDT) Temp. Heat Index Dew Point Humidity Pressure Visibility Wind Dir Wind Speed Gust Speed Precip Events Conditions
12:15 AM 84.0 °F 84.5 °F 62.1 °F 47% 29.98 in 10.0 mi Calm Calm - N/A   Clear
12:35 AM 83.5 °F 84.7 °F 63.5 °F 51% 29.98 in 10.0 mi Calm Calm - N/A   Clear
12:55 AM 82.9 °F 83.8 °F 62.6 °F 50% 29.98 in 10.0 mi Calm Calm - N/A   Clear
1:15 AM 81.9 °F 82.6 °F 61.7 °F 50% 29.97 in 10.0 mi Calm Calm - N/A   Clear
1:35 AM 82.9 °F 83.7 °F 62.2 °F 49% 29.97 in 10.0 mi SE 3.5 mph - N/A   Clear
1:55 AM 82.4 °F 83.4 °F 62.8 °F 51% 29.97 in 10.0 mi Calm Calm - N/A   Scattered Clouds
2:15 AM 82.0 °F 83.3 °F 63.5 °F 53% 29.97 in 10.0 mi SSE 3.5 mph - N/A   Scattered Clouds
2:35 AM 81.0 °F 81.9 °F 62.1 °F 52% 29.98 in 10.0 mi Calm Calm - N/A   Clear
2:55 AM 80.6 °F 81.8 °F 62.6 °F 54% 29.98 in 10.0 mi Calm Calm - N/A   Clear
3:15 AM 79.9 °F - 63.3 °F 57% 29.98 in 10.0 mi Calm Calm - N/A   Scattered Clouds
3:35 AM 79.2 °F - 61.9 °F 55% 29.98 in 10.0 mi Calm Calm - N/A   Clear
3:55 AM 78.3 °F - 64.4 °F 62% 29.98 in 10.0 mi Calm Calm - N/A   Clear
4:15 AM 79.5 °F - 63.7 °F 58% 29.98 in 10.0 mi Calm Calm - N/A   Clear
4:35 AM 78.8 °F - 62.8 °F 58% 29.98 in 10.0 mi Calm Calm - N/A   Clear
4:55 AM 78.1 °F - 63.9 °F 61% 29.99 in 10.0 mi Calm Calm - N/A   Clear
5:15 AM 76.6 °F - 63.9 °F 65% 29.99 in 10.0 mi Calm Calm - N/A   Clear
5:35 AM 76.1 °F - 64.2 °F 67% 29.99 in 10.0 mi SSE 4.6 mph - N/A   Clear
5:55 AM 76.6 °F - 63.7 °F 64% 29.99 in 10.0 mi South 3.5 mph - N/A   Clear
6:15 AM 76.1 °F - 63.9 °F 66% 29.99 in 10.0 mi South 3.5 mph - N/A   Clear
6:35 AM 75.7 °F - 64.2 °F 67% 30.00 in 10.0 mi South 4.6 mph - N/A   Clear
6:55 AM 76.1 °F - 65.5 °F 70% 30.00 in 10.0 mi SSE 6.9 mph - N/A   Clear
7:15 AM 77.9 °F - 66.6 °F 68% 30.01 in 10.0 mi South 6.9 mph - N/A   Clear
7:35 AM 78.8 °F - 67.1 °F 67% 30.01 in 10.0 mi South 8.1 mph - N/A   Clear
7:55 AM 79.2 °F - 67.5 °F 67% 30.01 in 10.0 mi South 8.1 mph - N/A   Clear
8:15 AM 80.8 °F 83.5 °F 68.2 °F 65% 30.02 in 10.0 mi South 8.1 mph - N/A   Clear
8:35 AM 82.0 °F 84.9 °F 68.0 °F 62% 30.02 in 10.0 mi South 9.2 mph - N/A   Clear
8:55 AM 81.7 °F 84.5 °F 68.0 °F 63% 30.02 in 10.0 mi South 8.1 mph - N/A   Clear
9:15 AM 81.7 °F 84.5 °F 68.0 °F 63% 30.02 in 10.0 mi South 9.2 mph - N/A   Clear
9:35 AM 82.4 °F 85.4 °F 68.2 °F 62% 30.02 in 10.0 mi South 8.1 mph - N/A   Clear
9:55 AM 82.9 °F 86.0 °F 68.4 °F 61% 30.01 in 10.0 mi South 6.9 mph - N/A   Clear
10:15 AM 85.3 °F 89.1 °F 68.9 °F 58% 30.01 in 10.0 mi South 6.9 mph - N/A   Clear
10:35 AM 88.9 °F 93.0 °F 68.5 °F 51% 30.02 in 10.0 mi SSW 6.9 mph - N/A   Scattered Clouds
10:55 AM 90.0 °F 92.8 °F 66.4 °F 46% 30.01 in 10.0 mi South 5.8 mph - N/A   Mostly Cloudy
11:15 AM 90.7 °F 94.5 °F 67.6 °F 47% 30.01 in 10.0 mi South 5.8 mph - N/A   Scattered Clouds
11:35 AM 92.1 °F 95.7 °F 67.1 °F 44% 30.01 in 10.0 mi SSW 8.1 mph - N/A   Clear
11:55 AM 92.8 °F 94.7 °F 64.8 °F 39% 30.01 in 10.0 mi South 6.9 mph - N/A   Scattered Clouds
12:15 PM 93.4 °F 93.9 °F 61.9 °F 35% 30.01 in 10.0 mi South 6.9 mph - N/A   Clear
12:35 PM 93.9 °F 95.6 °F 63.7 °F 37% 30.00 in 10.0 mi South 8.1 mph - N/A   Clear
12:55 PM 96.1 °F 97.3 °F 62.6 °F 33% 30.00 in 10.0 mi South 5.8 mph - N/A   Clear
1:15 PM 99.1 °F 99.8 °F 61.0 °F 28% 30.00 in 10.0 mi SW 4.6 mph - N/A   Clear
1:35 PM 99.9 °F 100.9 °F 61.0 °F 28% 29.99 in 10.0 mi SW 6.9 mph - N/A   Clear
1:55 PM 99.5 °F 100.4 °F 60.6 °F 28% 29.98 in 10.0 mi SSW 5.8 mph - N/A   Clear
2:15 PM 100.6 °F 101.6 °F 60.6 °F 27% 29.97 in 10.0 mi SSW 4.6 mph - N/A   Clear
2:35 PM 101.1 °F 101.3 °F 59.0 °F 25% 29.96 in 10.0 mi WSW 6.9 mph - N/A   Scattered Clouds
2:55 PM 101.7 °F 101.6 °F 59.0 °F 24% 29.95 in 10.0 mi SSW 8.1 mph - N/A   Scattered Clouds
3:15 PM 102.0 °F 102.2 °F 58.8 °F 24% 29.95 in 10.0 mi SSE 5.8 mph - N/A   Clear
3:35 PM 101.8 °F 102.4 °F 59.9 °F 25% 29.94 in 10.0 mi Calm Calm - N/A   Clear
3:55 PM 103.1 °F 103.8 °F 60.1 °F 24% 29.94 in 10.0 mi West 8.1 mph - N/A   Clear
4:15 PM 101.5 °F 101.9 °F 59.7 °F 25% 29.93 in 10.0 mi SSW 4.6 mph - N/A   Clear
4:35 PM 102.2 °F 102.4 °F 58.8 °F 24% 29.92 in 10.0 mi Calm Calm - N/A   Clear
4:55 PM 102.0 °F 102.2 °F 58.8 °F 24% 29.92 in 10.0 mi WSW 4.6 mph - N/A   Scattered Clouds
5:15 PM 102.2 °F 102.4 °F 58.8 °F 24% 29.91 in 10.0 mi SSW 6.9 mph - N/A   Clear
5:35 PM 102.6 °F 103.0 °F 58.8 °F 24% 29.91 in 10.0 mi SSW 4.6 mph - N/A   Scattered Clouds
5:55 PM 101.8 °F 101.9 °F 58.6 °F 24% 29.90 in 10.0 mi Calm Calm - N/A   Scattered Clouds
6:15 PM 101.8 °F 101.9 °F 59.2 °F 24% 29.89 in 10.0 mi SSW 6.9 mph - N/A   Scattered Clouds
6:35 PM 101.3 °F 101.6 °F 59.2 °F 25% 29.89 in 10.0 mi SSW 6.9 mph - N/A   Scattered Clouds
6:55 PM 100.6 °F 100.5 °F 58.5 °F 25% 29.89 in 10.0 mi South 6.9 mph - N/A   Clear
7:15 PM 100.4 °F 100.2 °F 59.0 °F 25% 29.89 in 10.0 mi South 4.6 mph - N/A   Scattered Clouds
7:35 PM 99.1 °F 99.8 °F 60.8 °F 28% 29.90 in 10.0 mi SSE 11.5 mph 17.3 mph N/A   Scattered Clouds
7:55 PM 97.7 °F 98.5 °F 61.5 °F 30% 29.90 in 10.0 mi SSE 9.2 mph - N/A   Clear
8:15 PM 95.9 °F 96.6 °F 61.3 °F 32% 29.91 in 10.0 mi SE 6.9 mph - N/A   Clear
8:35 PM 94.3 °F 94.9 °F 61.7 °F 34% 29.91 in 10.0 mi SE 5.8 mph - N/A   Clear
8:55 PM 92.7 °F 93.2 °F 61.7 °F 36% 29.91 in 10.0 mi ESE 5.8 mph - N/A   Clear
9:15 PM 91.8 °F 92.2 °F 62.1 °F 37% 29.92 in 10.0 mi ESE 6.9 mph - N/A   Clear
9:35 PM 91.2 °F 91.8 °F 62.6 °F 38% 29.92 in 10.0 mi SE 6.9 mph - N/A   Clear
9:55 PM 90.5 °F 91.1 °F 62.6 °F 39% 29.92 in 10.0 mi SE 5.8 mph - N/A   Clear
10:15 PM 90.5 °F 91.4 °F 62.8 °F 40% 29.92 in 10.0 mi SE 4.6 mph - N/A   Clear
10:35 PM 88.7 °F 89.4 °F 62.8 °F 42% 29.93 in 10.0 mi SE 5.8 mph - N/A   Clear
10:55 PM 89.6 °F 90.4 °F 62.8 °F 41% 29.93 in 10.0 mi ESE 5.8 mph - N/A   Clear
11:15 PM 90.1 °F 92.0 °F 64.6 °F 43% 29.93 in 10.0 mi ESE 11.5 mph - N/A   Scattered Clouds
11:35 PM 88.2 °F 90.3 °F 65.7 °F 47% 29.93 in 10.0 mi ESE 9.2 mph - N/A   Scattered Clouds
11:55 PM 88.0 °F 90.3 °F 66.2 °F 48% 29.93 in 10.0 mi SE 9.2 mph - N/A   Scattered Clouds